Location: Toronto
(43.6672°N, 79.4170°W)
Time: 07:55:10
(UTC-04:00)

Daily predictions for brighter satellites

Satellite Brightness Start Highest point End
(mag) Time Altitude Azimuth Time Altitude Azimuth Time Altitude Azimuth
Envisat 3.4 21:18:35 10° SE 21:23:25 48° ENE 21:28:18 10° N
GEOS 3 Rocket 3.7 21:19:31 10° SE 21:24:47 88° SW 21:30:02 10° NW
Cosmos 407 Rocket 4.4 21:21:13 10° SSE 21:25:40 29° E 21:30:06 10° NE
Cosmos 1515 3.9 21:30:42 10° S 21:34:26 51° E 21:38:11 10° NNE
CZ-2C R/B 1.8 21:32:57 10° S 21:35:05 37° W 21:37:15 10° NNW
Cosmos 1602 Rocket 4.1 21:31:44 10° SSW 21:36:11 66° W 21:40:38 10° N
Cosmos 1603 4.4 21:33:50 10° SW 21:39:22 60° WNW 21:44:56 10° NNE
Cosmos 1825 Rocket 4.0 21:35:25 10° SSE 21:39:36 43° E 21:43:48 10° NNE
USA 186 4.3 21:42:53 10° SW 21:44:26 14° W 21:45:57 10° WNW
Cosmos 1943 Rocket 3.1 21:40:23 10° N 21:45:26 34° NE 21:50:21 11° ESE
Cosmos 1812 Rocket 3.9 21:41:42 10° NNW 21:46:06 67° W 21:50:28 10° S
ALOS 4.1 21:42:43 10° SSW 21:46:47 29° W 21:50:52 10° NW
Lacrosse 4 Rocket 1.4 21:44:28 10° SSW 21:48:24 54° ESE 21:52:25 10° NE
Cosmos 2084 4.4 21:49:30 10° NNW 21:53:18 36° NE 21:56:59 12° ESE
Atlas Centaur 2 3.8 21:48:29 10° WSW 21:54:19 29° S 22:00:12 13° SE
Cosmos 1992 Rocket 4.3 21:49:24 10° NNW 21:54:37 69° WSW 21:59:47 10° S
Meteor 1-22 Rocket 4.4 21:51:13 10° N 21:56:48 59° ENE 22:02:15 12° SSE
SeaSat 1 2.7 21:52:49 12° SE 21:57:17 60° ENE 22:02:10 10° NNW
ISS -1.7 21:55:23 10° W 21:58:28 38° NNW 22:01:34 10° NE
Cosmos 1943 3.2 21:52:53 10° SSW 21:58:34 85° ESE 22:04:17 10° NNE
H-2A R/B 3.0 21:55:07 10° S 21:59:15 46° W 22:03:31 10° NNW
USA 81 4.1 22:06:30 10° N 22:11:50 89° W 22:17:07 10° S
CZ-4B R/B 3.6 22:08:08 10° NNE 22:13:14 62° ESE 22:18:25 10° S
CZ-4 R/B 4.3 22:09:19 10° NNE 22:14:08 44° E 22:18:13 14° SSE
Cosmos 1953 3.5 22:11:42 10° NNE 22:15:07 27° ENE 22:17:07 18° ESE
Lacrosse 5 rocket 4.3 22:13:32 10° NW 22:15:31 13° N 22:17:32 10° NNE
Cosmos 1939 Rocket 4.3 22:13:56 10° SSW 22:17:47 36° W 22:21:38 10° NNW
PSLV R/B 3.6 22:15:51 10° W 22:19:18 50° S 22:21:15 22° ESE
Terra 3.1 22:19:03 16° ESE 22:21:52 28° ENE 22:25:53 10° N
ARGOS 3.3 22:18:01 17° SSE 22:22:11 64° ENE 22:27:34 10° N
ATLAS 3B R/B 3.0 22:15:33 10° SW 22:23:17 86° NW 22:30:51 10° NE
Cosmos 1190 Rocket 4.3 22:18:16 10° SSW 22:23:34 71° WNW 22:28:54 10° NNE
Cosmos 1346 Rocket 2.9 22:20:21 10° SSW 22:24:15 78° W 22:28:13 10° N
SPOT 5 3.4 22:21:07 10° S 22:25:19 48° W 22:29:32 10° NNW
Cosmos-2242 3.5 22:21:19 10° N 22:25:34 45° ENE 22:28:02 22° SE
USA 245 4.0 22:21:18 15° SSE 22:26:00 85° ENE 22:30:43 10° NNW
Cosmos 1634 Rocket 4.2 22:20:48 10° NNW 22:26:56 70° W 22:33:05 10° S
Cosmos 1842 3.6 22:25:37 21° SSE 22:27:52 47° E 22:31:39 10° NNE
Cosmos 1953 Rocket 3.7 22:23:52 10° SSW 22:28:16 77° W 22:32:45 10° N
MetOp-B 4.4 22:24:19 12° S 22:29:12 67° WSW 22:34:34 10° NNW
Cosmos 1140 Rocket 4.0 22:26:31 17° SSE 22:30:03 40° ESE 22:34:56 10° NE
H-2A R/B 2.6 22:33:42 21° SE 22:36:35 42° ENE 22:41:22 10° N
Lacrosse 5 4.3 22:33:09 10° NW 22:36:48 19° N 22:40:26 10° ENE
SL-8 R/B 3.8 22:32:42 10° WNW 22:37:33 75° NNE 22:41:05 18° ESE
Meteor 1-21 4.3 22:32:08 10° S 22:37:55 84° E 22:43:47 10° NNE
Cosmos 1607 4.3 22:33:00 10° S 22:38:51 42° ESE 22:44:40 10° NE
Cosmos 2369 Rocket 3.3 22:34:40 10° NW 22:39:51 37° WSW 22:44:34 12° S
Cosmos 676 Rocket 4.1 22:35:44 10° SSW 22:41:04 82° WNW 22:46:26 10° NNE
USA 234 3.3 22:37:08 18° ESE 22:42:14 79° NE 22:48:49 10° NW
Cosmos 2279 Rocket 4.0 22:39:15 10° N 22:45:32 86° W 22:50:14 19° S
SPOT 1/Viking Rocket 3.8 22:41:55 18° S 22:45:48 65° WSW 22:50:56 10° NNW
YAOGAN 6 3.5 22:43:54 18° SSW 22:46:22 46° W 22:50:00 10° NNW
Cosmos 1932 4.3 22:41:43 10° SSW 22:47:53 81° ESE 22:54:09 10° NE
Cosmos 1766 3.9 22:48:54 10° NNW 22:52:50 53° W 22:55:14 21° SSW
SL-08 RB Rocket 3.7 22:51:28 25° S 22:54:03 77° WSW 22:58:35 10° NNW
NOAA 11 4.3 22:51:02 22° S 22:54:39 75° WSW 23:00:06 10° NNW
SAR-Lupe-2 3.6 22:58:16 42° SE 22:59:17 64° ENE 23:02:51 10° N
Cosmos 1340 3.9 23:00:50 26° E 23:00:55 26° E 23:04:06 10° NE
Cosmos 1544 3.9 22:57:37 10° N 23:01:10 38° ENE 23:01:55 34° ESE
CARTOSAT-1 3.6 23:02:00 36° SSE 23:03:42 71° ENE 23:08:02 10° N
Cosmos 1758 3.3 22:59:50 10° N 23:03:58 85° W 23:05:36 36° S
CZ-4C R/B 3.0 23:03:35 27° SE 23:04:13 28° ESE 23:09:05 10° NE
Okean 3 Rocket 4.4 23:08:05 30° ESE 23:08:49 32° E 23:12:47 10° NNE
USA 238 DEB 3.7 23:03:44 10° SSW 23:10:50 87° SE 23:17:57 10° NE
USA 238 3.7 23:03:50 10° SSW 23:10:56 87° SE 23:18:02 10° NE
SL-27 R/B 3.5 23:10:37 17° SW 23:12:56 42° WNW 23:16:09 10° N
DMSP B5D2-2 4.1 23:10:28 10° NNE 23:15:44 67° ESE 23:18:08 32° S
Cosmos 1470 3.1 23:14:57 10° N 23:18:44 48° ENE 23:19:20 43° ESE
Cosmos 1805 3.5 23:15:20 10° NNW 23:19:15 64° W 23:20:29 40° SSW
IGS 5A 3.4 23:19:53 45° S 23:21:07 87° W 23:25:18 10° NNW
COSMOS 2487 2.4 23:24:51 65° SE 23:25:01 67° ESE 23:28:37 10° NNE
COSMOS 2406 3.4 23:21:23 11° SSW 23:26:49 74° WNW 23:32:35 10° NNE
Lacrosse 4 Rocket 4.3 23:24:41 10° W 23:27:28 17° NW 23:30:17 10° N
Cosmos 1943 Rocket 3.2 23:24:07 10° NW 23:29:11 37° WSW 23:31:53 23° SSW
Cosmos 1842 Rocket 3.7 23:27:23 10° NNW 23:31:46 68° W 23:33:08 42° SSW
Cosmos 1818 4.3 23:26:37 10° NNW 23:31:55 47° NE 23:34:29 27° ESE
Cosmos 2082 Rocket 4.0 23:34:49 16° E 23:34:49 16° E 23:37:52 10° ENE
SeaSat 1 4.4 23:32:37 14° SW 23:35:08 20° WSW 23:38:41 10° WNW
ISS -0.5 23:33:03 10° NW 23:35:32 20° N 23:38:02 10° NE
Cosmos 1656 Rocket 3.8 23:30:28 10° NNW 23:36:08 69° WSW 23:38:15 38° S
CZ-4B R/B 4.0 23:37:33 13° ENE 23:38:07 13° ENE 23:39:56 10° NE
H-2A R/B 4.4 23:40:09 10° NE 23:41:37 15° ENE 23:41:37 15° ENE
Atlas Centaur 2 4.1 23:37:28 10° WSW 23:42:50 22° SSW 23:42:50 22° SSW
NOSS 3-2 (C) 3.6 23:43:08 38° S 23:45:06 53° ESE 23:51:32 10° NE
Cosmos 1707 2.6 23:50:19 75° SE 23:50:29 78° E 23:54:26 10° N
Cosmos 1953 4.2 23:48:20 10° NW 23:51:27 22° W 23:52:53 18° WSW
Geosat 4.4 23:47:22 10° NNE 23:52:20 60° WNW 23:55:55 19° SW
Lacrosse 5 rocket 4.1 23:53:29 10° NNW 23:56:16 17° NNE 23:59:07 10° ENE
